Time,TemperatureF,DewpointF,PressureIn,WindDirection,WindDirectionDegrees,WindSpeedMPH,WindSpeedGustMPH,Humidity,HourlyPrecipIn,Conditions,Clouds,dailyrainin,SoftwareType,DateUTC
2013-03-13 00:03:00,38.0,29.0,-100.00,SSW,212,2.0,4.0,72,0.00,,,1.54,,2013-03-13 04:03:00,
2013-03-13 00:23:00,35.0,29.0,-100.00,West,268,1.0,3.0,80,0.00,,,1.54,,2013-03-13 04:23:00,
2013-03-13 00:32:00,35.0,29.0,-100.00,West,268,1.0,3.0,80,0.00,,,1.54,,2013-03-13 04:32:00,
2013-03-13 00:43:00,34.0,29.0,-100.00,South,189,1.0,3.0,84,0.00,,,1.54,,2013-03-13 04:43:00,
2013-03-13 00:53:00,34.0,29.0,-100.00,South,189,1.0,3.0,84,0.00,,,1.54,,2013-03-13 04:53:00,
2013-03-13 01:02:00,34.0,29.0,-100.00,South,189,2.0,4.0,80,0.00,,,1.51,,2013-03-13 05:02:00,
2013-03-13 01:13:00,34.0,29.0,-100.00,South,189,2.0,4.0,80,0.00,,,1.51,,2013-03-13 05:13:00,
2013-03-13 01:22:00,35.0,29.0,-100.00,NNE,30,1.0,3.0,78,0.00,,,1.43,,2013-03-13 05:22:00,
2013-03-13 01:32:00,35.0,29.0,-100.00,NNE,30,1.0,3.0,78,0.00,,,1.43,,2013-03-13 05:32:00,
2013-03-13 01:42:00,35.0,29.0,-100.00,South,169,1.0,3.0,80,0.00,,,1.32,,2013-03-13 05:42:00,
2013-03-13 01:53:00,35.0,29.0,-100.00,South,169,1.0,3.0,80,0.00,,,1.32,,2013-03-13 05:53:00,
2013-03-13 02:02:00,35.0,28.0,-100.00,NW,304,0.0,1.0,77,0.00,,,1.23,,2013-03-13 06:02:00,
2013-03-13 02:13:00,35.0,28.0,-100.00,NW,304,0.0,1.0,77,0.00,,,1.23,,2013-03-13 06:13:00,
2013-03-13 02:23:00,36.0,28.0,-100.00,NNE,23,0.0,2.0,73,0.00,,,1.18,,2013-03-13 06:23:00,
2013-03-13 02:32:00,34.0,28.0,-100.00,West,261,1.0,2.0,78,0.00,,,1.12,,2013-03-13 06:32:00,
2013-03-13 02:42:00,34.0,28.0,-100.00,West,261,1.0,2.0,78,0.00,,,1.12,,2013-03-13 06:42:00,
2013-03-13 02:53:00,33.0,29.0,-100.00,WSW,253,2.0,4.0,84,0.00,,,1.07,,2013-03-13 06:53:00,
2013-03-13 03:03:00,33.0,29.0,-100.00,WSW,253,2.0,4.0,84,0.00,,,1.07,,2013-03-13 07:03:00,
2013-03-13 03:12:00,33.0,29.0,-100.00,WSW,253,2.0,4.0,84,0.00,,,1.07,,2013-03-13 07:12:00,
2013-03-13 03:23:00,33.0,30.0,-100.00,WSW,247,2.0,4.0,87,0.00,,,1.01,,2013-03-13 07:23:00,
2013-03-13 03:33:00,33.0,30.0,-100.00,WSW,247,2.0,4.0,87,0.00,,,1.01,,2013-03-13 07:33:00,
2013-03-13 03:42:00,33.0,29.0,-100.00,NNW,332,2.0,4.0,83,0.00,,,0.95,,2013-03-13 07:42:00,
2013-03-13 03:53:00,33.0,29.0,-100.00,NNW,332,2.0,4.0,83,0.00,,,0.95,,2013-03-13 07:53:00,
2013-03-13 04:03:00,33.0,29.0,-100.00,WSW,246,1.0,4.0,84,0.00,,,0.86,,2013-03-13 08:03:00,
2013-03-13 04:12:00,33.0,29.0,-100.00,WSW,246,1.0,4.0,84,0.00,,,0.86,,2013-03-13 08:12:00,
2013-03-13 04:23:00,32.0,29.0,-100.00,SW,232,1.0,3.0,87,0.00,,,0.77,,2013-03-13 08:23:00,
2013-03-13 04:33:00,32.0,29.0,-100.00,SW,232,1.0,3.0,87,0.00,,,0.77,,2013-03-13 08:33:00,
2013-03-13 04:43:00,32.0,29.0,-100.00,SW,232,1.0,3.0,87,0.00,,,0.77,,2013-03-13 08:43:00,
2013-03-13 04:54:00,32.0,29.0,-100.00,SW,236,1.0,3.0,90,0.00,,,0.67,,2013-03-13 08:54:00,
2013-03-13 05:02:00,32.0,28.0,-100.00,WSW,254,3.0,4.0,87,0.00,,,0.58,,2013-03-13 09:02:00,
2013-03-13 05:13:00,32.0,28.0,-100.00,WSW,254,3.0,4.0,87,0.00,,,0.58,,2013-03-13 09:13:00,
2013-03-13 05:23:00,32.0,30.0,-100.00,WSW,239,2.0,4.0,90,0.00,,,0.53,,2013-03-13 09:23:00,
2013-03-13 05:32:00,32.0,30.0,-100.00,WSW,239,2.0,4.0,90,0.00,,,0.53,,2013-03-13 09:32:00,
2013-03-13 05:42:00,33.0,30.0,-100.00,SSW,209,2.0,4.0,88,0.00,,,0.48,,2013-03-13 09:42:00,
2013-03-13 05:52:00,33.0,30.0,-100.00,SSW,209,2.0,4.0,88,0.00,,,0.48,,2013-03-13 09:52:00,
2013-03-13 06:02:00,33.0,29.0,-100.00,WNW,285,0.0,2.0,87,0.00,,,0.39,,2013-03-13 10:02:00,
2013-03-13 06:12:00,33.0,29.0,-100.00,WNW,285,0.0,2.0,87,0.00,,,0.39,,2013-03-13 10:12:00,
2013-03-13 06:22:00,33.0,29.0,-100.00,NNW,337,1.0,4.0,88,0.00,,,0.35,,2013-03-13 10:22:00,
2013-03-13 06:32:00,33.0,29.0,-100.00,NNW,337,1.0,4.0,88,0.00,,,0.35,,2013-03-13 10:32:00,
2013-03-13 06:42:00,33.0,29.0,-100.00,West,271,1.0,3.0,85,0.00,,,0.30,,2013-03-13 10:42:00,
2013-03-13 06:52:00,33.0,29.0,-100.00,West,271,1.0,3.0,85,0.00,,,0.30,,2013-03-13 10:52:00,
2013-03-13 07:02:00,31.0,29.0,-100.00,SSW,212,2.0,4.0,90,0.00,,,0.20,,2013-03-13 11:02:00,
2013-03-13 07:13:00,31.0,29.0,-100.00,SSW,212,2.0,4.0,90,0.00,,,0.20,,2013-03-13 11:13:00,
2013-03-13 07:22:00,30.0,28.0,-100.00,West,264,1.0,3.0,91,0.00,,,0.20,,2013-03-13 11:22:00,
2013-03-13 07:32:00,30.0,28.0,-100.00,West,264,1.0,3.0,91,0.00,,,0.20,,2013-03-13 11:32:00,
2013-03-13 07:42:00,32.0,29.0,-100.00,North,356,2.0,3.0,88,0.00,,,0.15,,2013-03-13 11:42:00,
2013-03-13 07:53:00,32.0,29.0,-100.00,North,356,2.0,3.0,88,0.00,,,0.15,,2013-03-13 11:53:00,
2013-03-13 08:02:00,33.0,27.0,-100.00,North,8,1.0,3.0,79,0.00,,,0.07,,2013-03-13 12:02:00,
2013-03-13 08:12:00,33.0,27.0,-100.00,North,8,1.0,3.0,79,0.00,,,0.07,,2013-03-13 12:12:00,
2013-03-13 08:22:00,31.0,27.0,-100.00,SW,229,1.0,2.0,85,0.00,,,0.03,,2013-03-13 12:22:00,
2013-03-13 08:32:00,31.0,27.0,-100.00,SW,229,1.0,2.0,85,0.00,,,0.03,,2013-03-13 12:32:00,
2013-03-13 08:42:00,31.0,28.0,-100.00,WSW,244,1.0,3.0,88,0.00,,,0.03,,2013-03-13 12:42:00,
2013-03-13 08:53:00,31.0,28.0,-100.00,WSW,244,1.0,3.0,88,0.00,,,0.03,,2013-03-13 12:53:00,
2013-03-13 09:02:00,33.0,30.0,-100.00,SW,226,1.0,4.0,87,0.00,,,0.00,,2013-03-13 13:02:00,
2013-03-13 09:12:00,33.0,30.0,-100.00,SW,226,1.0,4.0,87,0.00,,,0.00,,2013-03-13 13:12:00,
2013-03-13 09:22:00,33.0,30.0,-100.00,SW,226,1.0,4.0,87,0.00,,,0.00,,2013-03-13 13:22:00,
2013-03-13 09:43:00,38.0,31.0,-100.00,West,270,1.0,5.0,76,0.00,,,0.00,,2013-03-13 13:43:00,
2013-03-13 09:53:00,38.0,31.0,-100.00,West,270,1.0,5.0,76,0.00,,,0.00,,2013-03-13 13:53:00,
2013-03-13 10:03:00,42.0,31.0,-100.00,SSW,199,2.0,4.0,65,0.00,,,0.00,,2013-03-13 14:03:00,
2013-03-13 10:12:00,42.0,31.0,-100.00,SSW,199,2.0,4.0,65,0.00,,,0.00,,2013-03-13 14:12:00,
2013-03-13 10:22:00,44.0,26.0,-100.00,SSW,200,4.0,9.0,49,0.00,,,0.00,,2013-03-13 14:22:00,
2013-03-13 10:34:00,44.0,26.0,-100.00,SSW,196,5.0,11.0,48,0.00,,,0.00,,2013-03-13 14:34:00,
2013-03-13 10:42:00,44.0,26.0,-100.00,SSW,196,5.0,11.0,48,0.00,,,0.00,,2013-03-13 14:42:00,
2013-03-13 10:53:00,44.0,26.0,-100.00,SSW,196,5.0,11.0,48,0.00,,,0.00,,2013-03-13 14:53:00,
2013-03-13 11:03:00,44.0,25.0,-100.00,SSW,199,9.0,17.0,47,0.00,,,0.00,,2013-03-13 15:03:00,
2013-03-13 11:12:00,44.0,25.0,-100.00,SSW,199,9.0,17.0,47,0.00,,,0.00,,2013-03-13 15:12:00,
2013-03-13 11:22:00,45.0,24.0,-100.00,SSW,202,8.0,13.0,44,0.00,,,0.00,,2013-03-13 15:22:00,
2013-03-13 11:32:00,45.0,24.0,-100.00,SSW,202,8.0,13.0,44,0.00,,,0.00,,2013-03-13 15:32:00,
2013-03-13 11:43:00,45.0,25.0,-100.00,SSW,206,9.0,17.0,44,0.00,,,0.00,,2013-03-13 15:43:00,
2013-03-13 11:53:00,45.0,25.0,-100.00,SSW,206,9.0,17.0,44,0.00,,,0.00,,2013-03-13 15:53:00,
2013-03-13 12:03:00,43.0,29.0,-100.00,SSW,209,5.0,12.0,58,0.00,,,0.00,,2013-03-13 16:03:00,
2013-03-13 12:12:00,43.0,29.0,-100.00,SSW,209,5.0,12.0,58,0.00,,,0.00,,2013-03-13 16:12:00,
2013-03-13 12:22:00,42.0,29.0,-100.00,West,267,4.0,11.0,60,0.00,,,0.00,,2013-03-13 16:22:00,
2013-03-13 12:32:00,42.0,29.0,-100.00,West,267,4.0,11.0,60,0.00,,,0.00,,2013-03-13 16:32:00,
2013-03-13 12:42:00,43.0,28.0,-100.00,SSW,205,4.0,10.0,55,0.00,,,0.00,,2013-03-13 16:42:00,
2013-03-13 12:52:00,43.0,28.0,-100.00,SSW,205,4.0,10.0,55,0.00,,,0.00,,2013-03-13 16:52:00,
2013-03-13 13:03:00,43.0,27.0,-100.00,SSW,199,5.0,11.0,54,0.00,,,0.00,,2013-03-13 17:03:00,
2013-03-13 13:12:00,43.0,27.0,-100.00,SSW,199,5.0,11.0,54,0.00,,,0.00,,2013-03-13 17:12:00,
2013-03-13 13:23:00,42.0,27.0,-100.00,SSW,208,5.0,10.0,55,0.00,,,0.00,,2013-03-13 17:23:00,
2013-03-13 13:33:00,42.0,27.0,-100.00,SSW,208,5.0,10.0,55,0.00,,,0.00,,2013-03-13 17:33:00,
2013-03-13 13:42:00,43.0,25.0,-100.00,SSW,209,12.0,21.0,49,0.00,,,0.00,,2013-03-13 17:42:00,
2013-03-13 13:53:00,43.0,25.0,-100.00,SSW,209,12.0,21.0,49,0.00,,,0.00,,2013-03-13 17:53:00,
2013-03-13 14:03:00,37.0,32.0,-100.00,SSW,202,12.0,21.0,83,0.13,,,0.01,,2013-03-13 18:03:00,
2013-03-13 14:13:00,37.0,32.0,-100.00,SSW,202,12.0,21.0,83,0.13,,,0.01,,2013-03-13 18:13:00,
2013-03-13 14:22:00,36.0,33.0,-100.00,WSW,237,3.0,9.0,85,0.00,,,0.04,,2013-03-13 18:22:00,
2013-03-13 14:33:00,36.0,33.0,-100.00,WSW,237,3.0,9.0,85,0.00,,,0.04,,2013-03-13 18:33:00,
2013-03-13 14:42:00,39.0,33.0,-100.00,NE,56,2.0,6.0,78,0.00,,,0.04,,2013-03-13 18:42:00,
2013-03-13 14:52:00,39.0,33.0,-100.00,NE,56,2.0,6.0,78,0.00,,,0.04,,2013-03-13 18:52:00,
2013-03-13 15:03:00,41.0,29.0,-100.00,South,182,5.0,15.0,63,0.00,,,0.04,,2013-03-13 19:03:00,
2013-03-13 15:12:00,41.0,29.0,-100.00,South,182,5.0,15.0,63,0.00,,,0.04,,2013-03-13 19:12:00,
2013-03-13 15:22:00,44.0,26.0,-100.00,SSW,200,11.0,19.0,49,0.00,,,0.04,,2013-03-13 19:22:00,
2013-03-13 15:32:00,44.0,26.0,-100.00,SSW,200,11.0,19.0,49,0.00,,,0.04,,2013-03-13 19:32:00,
2013-03-13 15:43:00,45.0,24.0,-100.00,SSW,206,12.0,24.0,43,0.00,,,0.04,,2013-03-13 19:43:00,
2013-03-13 15:53:00,45.0,24.0,-100.00,SSW,206,12.0,24.0,43,0.00,,,0.04,,2013-03-13 19:53:00,
2013-03-13 16:02:00,47.0,24.0,-100.00,SSW,202,13.0,24.0,40,0.00,,,0.04,,2013-03-13 20:02:00,
2013-03-13 16:13:00,47.0,24.0,-100.00,SSW,202,13.0,24.0,40,0.00,,,0.04,,2013-03-13 20:13:00,
2013-03-13 16:22:00,40.0,29.0,-100.00,SSW,196,12.0,26.0,66,0.00,,,0.04,,2013-03-13 20:22:00,
2013-03-13 16:32:00,40.0,29.0,-100.00,SSW,196,12.0,26.0,66,0.00,,,0.04,,2013-03-13 20:32:00,
2013-03-13 16:42:00,42.0,28.0,-100.00,SSW,196,8.0,14.0,56,0.00,,,0.04,,2013-03-13 20:42:00,
2013-03-13 16:52:00,45.0,27.0,-100.00,SSW,195,9.0,19.0,50,0.00,,,0.04,,2013-03-13 20:52:00,
2013-03-13 17:02:00,45.0,27.0,-100.00,SSW,195,9.0,19.0,50,0.00,,,0.04,,2013-03-13 21:02:00,
2013-03-13 17:12:00,45.0,27.0,-100.00,SSW,195,9.0,19.0,50,0.00,,,0.04,,2013-03-13 21:12:00,
2013-03-13 17:22:00,43.0,22.0,-100.00,SSW,205,11.0,18.0,42,0.00,,,0.04,,2013-03-13 21:22:00,
2013-03-13 17:33:00,43.0,22.0,-100.00,SSW,205,11.0,18.0,42,0.00,,,0.04,,2013-03-13 21:33:00,
2013-03-13 17:42:00,40.0,28.0,-100.00,SSW,203,13.0,21.0,61,0.00,,,0.04,,2013-03-13 21:42:00,
2013-03-13 17:52:00,40.0,28.0,-100.00,SSW,203,13.0,21.0,61,0.00,,,0.04,,2013-03-13 21:52:00,
2013-03-13 18:02:00,38.0,29.0,-100.00,SSW,193,10.0,16.0,70,0.00,,,0.04,,2013-03-13 22:02:00,
2013-03-13 18:12:00,38.0,29.0,-100.00,SSW,193,10.0,16.0,70,0.00,,,0.04,,2013-03-13 22:12:00,
2013-03-13 18:22:00,40.0,24.0,-100.00,SSW,193,7.0,12.0,54,0.00,,,0.04,,2013-03-13 22:22:00,
2013-03-13 18:32:00,40.0,24.0,-100.00,SSW,193,7.0,12.0,54,0.00,,,0.04,,2013-03-13 22:32:00,
2013-03-13 18:42:00,40.0,25.0,-100.00,SSW,196,8.0,14.0,54,0.00,,,0.04,,2013-03-13 22:42:00,
2013-03-13 18:52:00,40.0,25.0,-100.00,SSW,196,8.0,14.0,54,0.00,,,0.04,,2013-03-13 22:52:00,
2013-03-13 19:02:00,39.0,20.0,-100.00,SSW,195,11.0,21.0,46,0.00,,,0.04,,2013-03-13 23:02:00,
2013-03-13 19:12:00,39.0,20.0,-100.00,SSW,195,11.0,21.0,46,0.00,,,0.04,,2013-03-13 23:12:00,
2013-03-13 19:22:00,38.0,20.0,-100.00,SSW,198,12.0,19.0,48,0.00,,,0.04,,2013-03-13 23:22:00,
2013-03-13 19:32:00,38.0,20.0,-100.00,SSW,198,12.0,19.0,48,0.00,,,0.04,,2013-03-13 23:32:00,
2013-03-13 19:43:00,38.0,18.0,-100.00,SSW,196,13.0,22.0,44,0.00,,,0.04,,2013-03-13 23:43:00,
2013-03-13 19:52:00,38.0,18.0,-100.00,SSW,196,13.0,22.0,44,0.00,,,0.04,,2013-03-13 23:52:00,
2013-03-13 20:02:00,37.0,20.0,-100.00,SSW,196,11.0,19.0,51,0.00,,,0.04,,2013-03-14 00:02:00,
2013-03-13 20:13:00,37.0,20.0,-100.00,SSW,196,11.0,19.0,51,0.00,,,0.04,,2013-03-14 00:13:00,
2013-03-13 20:22:00,36.0,18.0,-100.00,SSW,193,9.0,17.0,48,0.00,,,0.04,,2013-03-14 00:22:00,
2013-03-13 20:32:00,36.0,18.0,-100.00,SSW,192,5.0,13.0,47,0.00,,,0.04,,2013-03-14 00:32:00,
2013-03-13 20:42:00,36.0,18.0,-100.00,SSW,192,5.0,13.0,47,0.00,,,0.04,,2013-03-14 00:42:00,
2013-03-13 20:52:00,36.0,18.0,-100.00,SSW,192,5.0,13.0,47,0.00,,,0.04,,2013-03-14 00:52:00,
2013-03-13 21:03:00,35.0,20.0,-100.00,South,189,9.0,15.0,54,0.00,,,0.04,,2013-03-14 01:03:00,
2013-03-13 21:12:00,35.0,20.0,-100.00,South,189,9.0,15.0,54,0.00,,,0.04,,2013-03-14 01:12:00,
2013-03-13 21:23:00,35.0,18.0,-100.00,SSW,196,11.0,18.0,49,0.00,,,0.04,,2013-03-14 01:23:00,
2013-03-13 21:32:00,35.0,18.0,-100.00,SSW,196,11.0,18.0,49,0.00,,,0.04,,2013-03-14 01:32:00,
2013-03-13 21:42:00,35.0,18.0,-100.00,SSW,196,7.0,12.0,51,0.00,,,0.04,,2013-03-14 01:42:00,
2013-03-13 21:53:00,35.0,18.0,-100.00,SSW,196,7.0,12.0,51,0.00,,,0.04,,2013-03-14 01:53:00,
2013-03-13 22:02:00,34.0,19.0,-100.00,SSW,195,6.0,11.0,53,0.00,,,0.04,,2013-03-14 02:02:00,
2013-03-13 22:12:00,34.0,19.0,-100.00,SSW,195,6.0,11.0,53,0.00,,,0.04,,2013-03-14 02:12:00,
2013-03-13 22:22:00,33.0,20.0,-100.00,SSW,198,8.0,14.0,59,0.00,,,0.04,,2013-03-14 02:22:00,
2013-03-13 22:33:00,33.0,20.0,-100.00,SSW,198,8.0,14.0,59,0.00,,,0.04,,2013-03-14 02:33:00,
2013-03-13 22:42:00,33.0,20.0,-100.00,SSW,198,8.0,14.0,59,0.00,,,0.04,,2013-03-14 02:42:00,
2013-03-13 23:02:00,33.0,18.0,-100.00,SSW,193,8.0,16.0,54,0.00,,,0.04,,2013-03-14 03:02:00,
2013-03-13 23:12:00,33.0,18.0,-100.00,SSW,193,8.0,16.0,54,0.00,,,0.04,,2013-03-14 03:12:00,
2013-03-13 23:23:00,33.0,18.0,-100.00,SSW,195,8.0,15.0,53,0.00,,,0.04,,2013-03-14 03:23:00,
2013-03-13 23:33:00,33.0,18.0,-100.00,SSW,192,9.0,14.0,55,0.00,,,0.04,,2013-03-14 03:33:00,
2013-03-13 23:42:00,33.0,18.0,-100.00,SSW,192,9.0,14.0,55,0.00,,,0.04,,2013-03-14 03:42:00,
2013-03-13 23:53:00,33.0,18.0,-100.00,SSW,192,9.0,14.0,55,0.00,,,0.04,,2013-03-14 03:53:00,